User: anonymous   Login
Location: Vancouver
(49.2500°N, 123.1330°W)
Time: 09:09:36
(UTC-07:00)
Language:

YAOGAN 6 - Orbit

View from above orbital plane
View from above orbital plane
View from above satellite
View from above satellite

Ground track
Ground track

The orbit data is extracted from the following two-line orbital elements,

1 34839U 09021A   16152.20454881  .00001162  00000-0  49130-4 0  9997
2 34839  97.1971 212.5877 0027865 232.8702 212.7577 15.24839472394368
Epoch (UTC): 31 May 2016 04:54:33
Eccentricity: 0.0027865
inclination: 97.1971°
perigee height: 472 km
apogee height: 510 km
right ascension of ascending node: 212.5877°
argument of perigee: 232.8702°
revolutions per day: 15.24839472
mean anomaly at epoch: 212.7577°
orbit number at epoch: 39436

The dashed part of the orbit path shows where the satellite is in the earth's shadow,  

DLR